Home > Time Zones > World Clock > Weather > Canada > Ajax > Past weeks

Flag for Canada Weather past 2 weeks in Ajax, Ontario, Canada

Now
7 °F

Overcast.


Feels Like: 7 °F
Forecast: 13 / 27 °F
Wind: 2 mph from North

Location: Toronto Buttonville

Current Time: Mar 1, 2015 at 4:22:25 AM

Latest Report: Mar 1, 2015 at 3:00 AM


Visibility: 15 mi

Pressure: 30.58 "Hg

Humidity: 78%

Dew point: 1 °F

Location of AjaxLocation

Historic Weather in Ajax — Graph

°F

Ajax temperature yesterday

Maximum temperature yesterday: 23 °F (at 2:00 PM)
Minimum temperature yesterday: -4 °F (at 5:00 AM)
Average temperature yesterday: 11 °F

Past Weeks' High & Low Weather Summary

 TemperatureHumidityPressure
High25 °F (Feb 22, 2:00 PM)93% (Feb 14, 4:00 AM)30.79 "Hg (Feb 14, 4:00 AM)
Low-17 °F (Feb 15, 8:00 AM)24% (Feb 17, 4:00 PM)29.58 "Hg (Feb 14, 11:00 AM)
Average5 °F61%30.17 "Hg
* Reported Feb 14 3:00 AM — Mar 1 3:00 AM, Ajax, Weather by CustomWeather, © 2015

Note: Actual official high and low records may vary slightly from our data, if they occured in-between our weather recording intervals... More about our weather records

Advertising

Ajax weather history for previous 24 hours

 ConditionsComfort  
Time TempWeatherWind HumidityBarometerVisibility
3:00 AM
Sun, Mar 1
7 °FOvercast.2 mph78%30.58 "Hg15 mi
2:00 AM5 °FOvercast.3 mph72%30.60 "Hg15 mi
1:00 AM3 °FOvercast.No wind72%30.60 "Hg15 mi
12:00 AM3 °FPassing clouds.No wind72%30.64 "Hg15 mi
11:00 PM
Sat, Feb 28
5 °FClear.No wind66%30.66 "Hg15 mi
10:00 PM7 °FClear.No wind61%30.67 "Hg15 mi
9:00 PM14 °FClear.3 mph62%30.69 "Hg15 mi
8:00 PM18 °FClear.6 mph53%30.70 "Hg15 mi
7:00 PM18 °FClear.5 mph58%30.70 "Hg15 mi
6:00 PM21 °FPassing clouds.5 mph54%30.70 "Hg15 mi
5:00 PM23 °FSunny.6 mph50%30.71 "Hg15 mi
4:00 PM23 °FSunny.6 mph50%30.72 "Hg15 mi
3:00 PM23 °FSunny.6 mph50%30.73 "Hg15 mi
2:00 PM23 °FSunny.6 mph50%30.73 "Hg15 mi
1:00 PM21 °FPassing clouds.12 mph54%30.76 "Hg15 mi
12:00 PM19 °FSunny.7 mph53%30.78 "Hg15 mi
11:00 AM18 °FSunny.8 mph58%30.78 "Hg15 mi
10:00 AM14 °FSunny.7 mph57%30.78 "Hg15 mi
9:00 AM9 °FSunny.2 mph61%30.79 "Hg15 mi
8:00 AM3 °FPassing clouds.5 mph66%30.77 "Hg15 mi
7:00 AM1 °FPassing clouds.3 mph65%30.75 "Hg15 mi
6:00 AM1 °FClear.5 mph71%30.73 "Hg15 mi
5:00 AM-4 °FClear.2 mph71%30.71 "Hg15 mi
4:00 AM-2 °FClear.2 mph71%30.69 "Hg15 mi
Weather by CustomWeather, © 2015

See weather overviewHow to use our weather pages